EN

Hourly Weather Lagerevka

Today, 24 July, Saturday

Time Temperature Precipitation Wind Pressure Humidity
00:00 +19°C° 0 mm 2 mps 748 mmHg 54%
01:00 +19°C° 0 mm 1 mps 748 mmHg 59%
02:00 +18°C° 0 mm 1 mps 749 mmHg 64%
03:00 +16°C° 0 mm 1 mps 749 mmHg 68%
04:00 +18°C° 0 mm 1 mps 749 mmHg 63%
05:00 +20°C° 0 mm 1 mps 749 mmHg 58%
06:00 +21°C° 0 mm 1 mps 749 mmHg 53%
07:00 +23°C° 0 mm 2 mps 750 mmHg 47%
08:00 +25°C° 0 mm 3 mps 750 mmHg 40%
09:00 +26°C° 0 mm 3 mps 750 mmHg 34%
10:00 +26°C° 0 mm 4 mps 750 mmHg 34%
11:00 +26°C° 0 mm 4 mps 750 mmHg 35%
12:00 +27°C° 0 mm 5 mps 750 mmHg 36%
13:00 +26°C° 0 mm 5 mps 750 mmHg 36%
14:00 +26°C° 0 mm 5 mps 750 mmHg 36%
15:00 +26°C° 0 mm 5 mps 751 mmHg 37%
16:00 +26°C° 0 mm 4 mps 751 mmHg 37%
17:00 +25°C° 0 mm 4 mps 751 mmHg 37%
18:00 +25°C° 0 mm 4 mps 751 mmHg 37%
19:00 +22°C° 0 mm 3 mps 752 mmHg 47%
20:00 +20°C° 0 mm 3 mps 753 mmHg 57%
21:00 +17°C° 0 mm 3 mps 753 mmHg 67%
22:00 +17°C° 0 mm 3 mps 754 mmHg 72%
23:00 +16°C° 0 mm 3 mps 754 mmHg 77%

Tomorrow, 25 July, Sunday

Time Temperature Precipitation Wind Pressure Humidity
00:00 +15°C° 0 mm 2 mps 755 mmHg 81%
01:00 +14°C° 0 mm 2 mps 755 mmHg 83%
02:00 +13°C° 0 mm 2 mps 756 mmHg 85%
03:00 +13°C° 0 mm 2 mps 756 mmHg 87%
04:00 +14°C° 0 mm 2 mps 757 mmHg 78%
05:00 +14°C° 0 mm 3 mps 757 mmHg 68%
06:00 +17°C° 0 mm 3 mps 758 mmHg 58%
07:00 +18°C° 0 mm 3 mps 758 mmHg 50%
08:00 +20°C° 0 mm 3 mps 758 mmHg 42%
09:00 +22°C° 0 mm 3 mps 759 mmHg 34%
10:00 +23°C° 0 mm 4 mps 759 mmHg 31%
11:00 +25°C° 0 mm 4 mps 759 mmHg 28%
12:00 +25°C° 0 mm 4 mps 759 mmHg 25%
13:00 +26°C° 0 mm 4 mps 759 mmHg 24%
14:00 +26°C° 0 mm 4 mps 759 mmHg 23%
15:00 +26°C° 0 mm 5 mps 759 mmHg 22%
16:00 +26°C° 0 mm 5 mps 759 mmHg 23%
17:00 +25°C° 0 mm 5 mps 759 mmHg 24%
18:00 +23°C° 0 mm 5 mps 760 mmHg 25%
19:00 +20°C° 0 mm 4 mps 760 mmHg 32%
20:00 +18°C° 0 mm 3 mps 761 mmHg 38%
21:00 +14°C° 0 mm 3 mps 761 mmHg 44%
22:00 +15°C° 0 mm 2 mps 761 mmHg 47%
23:00 +14°C° 0 mm 2 mps 762 mmHg 50%

Day after tomorrow, 26 July, Monday

Time Temperature Precipitation Wind Pressure Humidity
00:00 +13°C° 0 mm 2 mps 762 mmHg 53%
01:00 +13°C° 0 mm 1 mps 762 mmHg 54%
02:00 +12°C° 0 mm 1 mps 762 mmHg 56%
03:00 +12°C° 0 mm 1 mps 762 mmHg 58%
04:00 +14°C° 0 mm 1 mps 763 mmHg 53%
05:00 +15°C° 0 mm 1 mps 763 mmHg 49%
06:00 +18°C° 0 mm 1 mps 763 mmHg 44%
07:00 +20°C° 0 mm 1 mps 763 mmHg 39%
08:00 +22°C° 0 mm 1 mps 763 mmHg 35%
09:00 +24°C° 0 mm 2 mps 763 mmHg 30%
10:00 +25°C° 0 mm 2 mps 763 mmHg 28%
11:00 +26°C° 0 mm 3 mps 762 mmHg 26%
12:00 +26°C° 0 mm 3 mps 762 mmHg 25%
13:00 +27°C° 0 mm 3 mps 762 mmHg 24%
14:00 +27°C° 0 mm 3 mps 762 mmHg 24%
15:00 +27°C° 0 mm 4 mps 761 mmHg 24%
16:00 +26°C° 0 mm 3 mps 761 mmHg 26%
17:00 +26°C° 0 mm 3 mps 761 mmHg 28%
18:00 +25°C° 0 mm 3 mps 761 mmHg 30%
19:00 +23°C° 0 mm 2 mps 761 mmHg 35%
20:00 +20°C° 0 mm 2 mps 761 mmHg 40%
21:00 +19°C° 0 mm 1 mps 761 mmHg 45%
22:00 +18°C° 0 mm 1 mps 761 mmHg 48%
23:00 +18°C° 0 mm 1 mps 761 mmHg 51%

27 July, Tuesday

Time Temperature Precipitation Wind Pressure Humidity
00:00 +15°C° 0 mm 0 mps 761 mmHg 54%
01:00 +14°C° 0 mm 0 mps 761 mmHg 55%
02:00 +15°C° 0 mm 1 mps 761 mmHg 57%
03:00 +15°C° 0 mm 1 mps 761 mmHg 58%
04:00 +16°C° 0 mm 1 mps 761 mmHg 54%
05:00 +18°C° 0 mm 2 mps 761 mmHg 50%
06:00 +19°C° 0 mm 2 mps 761 mmHg 46%
07:00 +21°C° 0 mm 3 mps 761 mmHg 41%
08:00 +24°C° 0 mm 3 mps 760 mmHg 36%
09:00 +26°C° 0 mm 4 mps 760 mmHg 31%
10:00 +27°C° 0 mm 4 mps 760 mmHg 29%
11:00 +28°C° 0 mm 5 mps 759 mmHg 27%
12:00 +28°C° 0 mm 5 mps 759 mmHg 25%
13:00 +28°C° 0 mm 5 mps 759 mmHg 27%
14:00 +28°C° 0 mm 5 mps 758 mmHg 28%
15:00 +28°C° 0 mm 6 mps 758 mmHg 29%
16:00 +27°C° 0 mm 5 mps 758 mmHg 33%
17:00 +26°C° 0 mm 5 mps 758 mmHg 37%
18:00 +25°C° 0 mm 4 mps 758 mmHg 41%
19:00 +24°C° 0 mm 3 mps 758 mmHg 47%
20:00 +21°C° 0 mm 2 mps 758 mmHg 53%
21:00 +20°C° 0 mm 1 mps 758 mmHg 58%
22:00 +19°C° 0 mm 1 mps 758 mmHg 61%
23:00 +19°C° 0 mm 1 mps 758 mmHg 64%

28 July, Wednesday

Time Temperature Precipitation Wind Pressure Humidity
00:00 +18°C° 0 mm 1 mps 758 mmHg 67%
01:00 +18°C° 0 mm 1 mps 758 mmHg 69%
02:00 +18°C° 0 mm 1 mps 758 mmHg 71%
03:00 +18°C° 0 mm 1 mps 758 mmHg 73%
04:00 +19°C° 0 mm 1 mps 758 mmHg 71%
05:00 +20°C° 0 mm 1 mps 758 mmHg 68%
06:00 +19°C° 0 mm 2 mps 758 mmHg 66%
07:00 +21°C° 0 mm 2 mps 758 mmHg 58%
08:00 +24°C° 0 mm 3 mps 758 mmHg 51%
09:00 +26°C° 0 mm 3 mps 758 mmHg 43%
10:00 +27°C° 0 mm 3 mps 757 mmHg 40%
11:00 +28°C° 0 mm 4 mps 757 mmHg 37%
12:00 +29°C° 0 mm 4 mps 756 mmHg 34%
13:00 +29°C° 0 mm 4 mps 756 mmHg 32%
14:00 +29°C° 0 mm 3 mps 756 mmHg 30%
15:00 +30°C° 0 mm 3 mps 756 mmHg 28%
16:00 +29°C° 0 mm 3 mps 756 mmHg 28%
17:00 +29°C° 0 mm 4 mps 755 mmHg 28%
18:00 +29°C° 0 mm 4 mps 755 mmHg 28%
19:00 +26°C° 0 mm 4 mps 755 mmHg 35%
20:00 +22°C° 0 mm 3 mps 756 mmHg 42%
21:00 +20°C° 0 mm 2 mps 756 mmHg 50%
22:00 +19°C° 0 mm 2 mps 756 mmHg 52%
23:00 +20°C° 0 mm 1 mps 756 mmHg 54%

29 July, Thursday

Time Temperature Precipitation Wind Pressure Humidity
00:00 +17°C° 0 mm 0 mps 755 mmHg 56%
01:00 +19°C° 0 mm 1 mps 755 mmHg 57%
02:00 +19°C° 0 mm 1 mps 755 mmHg 58%
03:00 +18°C° 0 mm 1 mps 755 mmHg 59%
04:00 +20°C° 0 mm 1 mps 755 mmHg 54%
05:00 +20°C° 0 mm 2 mps 755 mmHg 50%
06:00 +23°C° 0 mm 2 mps 755 mmHg 45%
07:00 +25°C° 0 mm 3 mps 755 mmHg 41%
08:00 +27°C° 0 mm 3 mps 755 mmHg 37%
09:00 +30°C° 0 mm 3 mps 755 mmHg 33%
10:00 +30°C° 0 mm 3 mps 754 mmHg 31%
11:00 +31°C° 0 mm 3 mps 754 mmHg 30%
12:00 +33°C° 0 mm 3 mps 754 mmHg 28%
13:00 +33°C° 0 mm 4 mps 754 mmHg 27%
14:00 +33°C° 0 mm 4 mps 753 mmHg 27%
15:00 +33°C° 0 mm 4 mps 753 mmHg 26%
16:00 +32°C° 0 mm 4 mps 753 mmHg 28%
17:00 +30°C° 0 mm 3 mps 753 mmHg 30%
18:00 +29°C° 0 mm 2 mps 753 mmHg 32%
19:00 +28°C° 0 mm 2 mps 753 mmHg 35%
20:00 +26°C° 0 mm 2 mps 753 mmHg 38%
21:00 +25°C° 0 mm 1 mps 753 mmHg 40%
22:00 +24°C° 0 mm 2 mps 753 mmHg 42%
23:00 +23°C° 0 mm 2 mps 753 mmHg 44%
Show more